Theta_e
311 309 308 308 309 309 309 309 309 310 312 314 315 315 315 315 315 315 315 315 315 314 315 316 316 316 316 317 317 317 316 316 316 315 316 320 320 319 319 319 320 319 320 319 319 319 318 321 323 319 321 323 326 329 328 332 342 350 353 347 338 341 343 341 341 338 340 341 340 340 339 341 340 338 337 337 337 336 337 335 334 332 330 328 323 319 319 319
314 312 310 309 308 309 309 309 309 310 311 313 315 315 315 315 314 315 315 315 315 314 315 315 316 316 316 317 317 317 317 317 318 318 319 322 322 320 320 318 319 318 318 319 318 319 318 323 327 325 332 336 330 332 332 329 341 354 352 344 339 343 341 339 341 336 338 341 340 340 339 340 340 338 337 338 337 335 338 335 334 334 331 326 319 317 318 319
315 315 313 311 309 309 308 308 309 309 310 312 314 315 315 315 315 315 314 315 314 314 315 315 316 316 316 317 317 318 319 319 324 329 325 324 325 323 323 321 320 318 317 318 319 319 317 322 326 333 347 344 334 338 340 334 337 344 350 351 344 342 339 336 339 338 338 339 340 341 339 340 338 337 337 336 336 338 340 336 334 335 335 331 323 317 316 318
316 315 315 314 311 310 309 308 309 309 309 311 314 315 315 315 315 315 315 315 314 315 315 316 317 316 317 316 318 320 322 325 331 332 326 325 326 324 325 323 322 320 318 318 319 319 316 324 330 340 350 342 343 348 342 336 334 338 347 352 341 340 341 337 337 338 338 337 340 341 339 340 337 338 339 337 341 344 342 337 335 336 335 334 328 319 315 315
315 315 316 315 314 312 310 309 309 309 309 310 313 314 315 315 315 315 315 315 315 315 315 317 317 317 317 317 319 320 324 332 331 327 326 326 325 325 325 323 323 320 319 318 318 318 317 327 335 345 349 342 350 351 337 335 338 340 340 341 339 341 343 337 335 338 337 338 340 340 340 338 336 339 340 340 344 344 342 338 335 336 337 335 328 320 316 316
315 315 316 316 315 313 311 310 309 309 309 310 312 314 316 315 316 315 315 315 315 315 315 318 317 317 317 317 320 319 323 331 326 324 327 326 325 326 325 323 324 320 320 319 317 321 324 334 340 348 354 346 347 344 336 337 340 344 339 336 339 339 341 336 335 338 338 340 341 339 339 337 339 341 337 338 338 335 336 338 337 334 332 327 322 321 321 323
315 315 316 316 316 315 313 311 310 310 310 310 312 313 315 315 316 315 315 315 315 315 315 317 317 318 317 318 322 323 325 329 324 325 326 326 326 325 326 323 323 320 320 318 319 328 333 340 343 348 354 345 341 340 337 338 341 347 341 336 338 336 339 336 335 339 338 341 340 337 337 338 344 341 335 338 337 334 334 335 334 329 324 322 324 328 327 325
316 316 316 316 316 315 314 312 311 310 310 311 312 313 315 315 316 315 315 315 315 315 315 317 318 317 318 319 324 326 329 330 325 326 325 326 326 325 326 323 322 320 319 318 321 332 334 338 340 343 347 340 339 339 337 340 340 343 340 336 337 335 337 336 336 339 337 339 337 337 339 339 343 340 336 339 337 335 334 334 333 330 328 327 330 333 330 326
316 316 317 316 316 315 314 313 312 312 311 311 312 313 315 315 316 316 315 315 315 315 316 317 318 317 319 320 322 324 327 328 324 325 325 326 326 325 326 323 322 319 319 319 321 329 331 335 338 338 341 337 338 337 339 345 340 338 338 336 337 336 335 334 337 338 336 335 335 338 340 338 337 335 335 336 336 335 333 335 335 334 335 333 333 333 331 331
317 317 317 317 317 316 315 314 313 312 312 312 313 313 315 315 315 316 316 316 315 315 316 316 317 318 320 322 322 323 324 323 323 325 325 326 326 326 325 324 323 320 320 320 321 327 331 334 334 334 338 337 338 336 335 339 337 335 336 336 336 336 334 335 337 337 336 334 337 342 341 338 335 333 337 336 335 334 333 335 334 335 337 335 335 332 326 327
318 318 318 318 317 317 316 315 314 313 313 313 313 314 315 315 315 316 316 316 316 316 316 316 317 318 320 323 322 323 324 321 322 324 324 325 326 326 325 325 324 322 321 322 322 326 330 331 329 332 336 335 337 336 332 332 334 334 335 336 336 337 335 336 337 336 336 334 338 344 339 337 335 335 341 339 335 334 334 337 334 335 338 335 334 333 328 325
318 318 318 318 318 318 316 315 315 314 314 313 314 315 315 316 316 316 316 316 316 316 316 317 317 318 320 324 324 324 322 320 321 321 322 323 324 326 326 325 326 324 324 324 323 325 329 328 329 334 334 332 335 335 331 330 334 335 338 340 337 340 338 335 337 335 335 336 337 340 338 341 340 338 341 337 335 333 334 337 336 336 336 334 332 332 333 327
319 319 319 319 319 318 317 316 315 315 315 315 315 315 315 316 316 316 316 316 316 316 317 317 317 318 321 325 325 322 319 321 321 321 323 322 322 325 327 326 326 326 324 324 324 325 328 328 330 334 333 334 334 332 331 331 337 338 338 342 341 344 343 335 336 335 334 336 336 336 339 348 346 342 340 336 335 333 334 337 336 336 335 334 332 333 335 329
319 319 319 319 319 318 318 316 316 317 317 317 317 317 317 317 316 317 316 316 316 316 317 317 318 319 321 324 322 319 320 321 322 323 324 324 325 326 327 327 326 325 324 325 325 325 329 328 329 332 331 334 332 330 338 339 344 343 337 342 342 342 344 339 335 336 334 335 336 334 340 352 350 344 340 335 335 335 336 338 335 336 335 334 333 333 337 332
318 319 319 319 319 319 318 317 317 318 319 319 320 320 319 317 317 317 316 316 317 317 318 318 319 319 322 324 320 319 321 320 323 325 325 327 326 326 327 326 327 327 327 327 326 326 328 328 332 336 331 331 333 335 344 345 346 346 340 342 340 337 343 341 335 337 338 335 334 335 344 352 346 341 338 334 335 335 337 337 335 336 335 335 335 333 337 333
318 318 318 319 319 319 318 317 318 319 320 321 321 321 321 319 317 316 317 317 317 318 317 319 320 319 321 323 320 320 321 321 323 322 325 328 326 328 327 327 329 328 329 328 328 328 327 332 335 334 332 333 339 342 345 344 344 344 341 341 340 337 339 340 335 335 338 339 335 334 343 346 339 337 336 334 335 335 336 337 335 337 336 336 336 334 335 334
318 318 318 319 319 319 318 318 319 320 320 322 322 322 321 319 318 317 318 318 319 319 317 319 320 318 319 320 320 321 321 320 321 321 325 326 327 328 326 329 329 327 330 328 328 330 330 337 334 332 341 343 342 345 344 340 339 339 339 339 339 339 339 342 339 333 335 342 341 336 338 342 339 339 338 334 335 336 336 337 336 337 337 336 336 334 334 334
317 317 318 319 319 319 318 318 319 321 321 321 322 322 320 319 317 317 320 320 319 319 318 319 319 319 320 320 320 320 319 319 320 320 322 324 327 328 327 329 329 331 337 333 329 332 335 339 337 340 348 343 339 345 345 342 340 339 340 339 337 337 337 341 340 335 336 340 342 340 339 342 338 338 341 336 334 337 337 336 336 336 337 336 336 336 334 334
316 317 318 318 319 319 319 318 319 321 322 321 322 320 318 320 319 319 320 319 320 323 321 321 322 322 321 321 320 320 319 320 322 321 322 325 326 327 328 327 330 333 337 338 332 332 341 342 337 340 343 339 338 341 343 344 343 341 343 345 343 337 335 339 337 333 335 338 341 342 342 344 338 337 344 339 335 338 337 336 337 337 338 337 337 337 335 334
316 317 317 318 319 319 319 318 318 321 322 321 321 321 324 327 330 328 323 320 322 323 321 322 323 322 322 322 321 321 322 322 322 322 323 326 326 328 328 327 333 335 336 341 334 330 345 349 339 341 344 341 339 337 341 343 341 341 342 343 342 337 337 338 333 330 335 338 340 338 337 341 338 336 342 339 336 338 338 338 338 338 338 338 338 338 335 334
316 316 317 318 319 319 319 317 317 320 322 322 321 323 325 325 328 328 324 324 323 320 322 323 320 321 322 321 320 321 322 322 322 322 323 326 327 328 330 331 334 337 336 338 336 337 345 344 343 347 345 340 337 338 344 345 343 344 343 339 337 337 338 334 330 330 333 337 340 337 335 337 335 334 340 340 339 339 339 339 339 338 338 338 338 338 336 333
315 317 317 317 319 320 320 318 317 319 322 322 321 323 322 319 322 322 320 326 327 321 323 323 319 321 322 319 321 321 320 323 324 323 322 325 329 328 332 335 335 340 336 331 338 344 339 341 349 346 338 338 339 339 344 348 348 348 343 337 337 339 337 333 331 331 331 335 340 339 336 339 337 336 342 343 341 340 338 338 337 337 338 338 338 337 336 334
316 317 316 317 318 319 320 318 316 318 320 321 321 320 319 318 322 321 318 324 327 323 324 325 324 326 326 322 321 322 322 324 324 324 323 324 329 329 331 334 335 341 337 333 341 339 332 338 345 337 334 341 342 337 342 344 344 347 343 338 339 339 335 334 331 330 331 331 337 340 339 343 343 339 339 340 339 338 337 337 337 337 338 338 337 337 337 336
315 316 316 317 317 319 321 318 316 318 318 319 320 318 316 318 322 322 321 325 327 326 324 323 324 327 327 323 320 323 325 323 324 325 323 326 329 327 330 335 336 337 336 338 341 338 336 335 332 332 337 346 343 336 341 341 338 343 344 343 343 340 337 336 332 333 334 330 337 342 339 347 350 341 339 336 334 336 336 337 339 337 336 336 336 337 337 337
315 316 316 316 316 319 320 317 318 319 317 320 320 316 315 317 322 322 323 325 323 325 323 317 321 325 323 321 320 322 323 321 323 323 321 325 327 326 328 331 334 336 337 337 337 339 340 331 330 335 338 343 345 344 344 340 338 339 340 343 346 342 338 334 333 339 338 333 335 334 334 347 352 345 343 339 334 336 335 336 338 337 335 335 337 338 338 337
313 316 316 316 316 317 320 321 319 317 318 320 317 316 315 317 322 322 326 330 324 324 323 318 320 323 320 320 319 320 322 322 321 319 320 323 324 326 328 328 330 334 338 340 339 339 335 329 334 340 338 339 343 345 342 339 340 335 331 339 343 342 339 333 336 340 337 332 331 335 338 341 346 348 345 341 339 339 336 335 336 334 335 337 336 337 339 338
312 314 316 316 315 316 321 322 319 318 319 318 316 316 315 316 322 321 324 328 324 323 322 318 319 320 320 319 319 321 322 323 321 318 321 323 322 323 328 331 327 328 335 337 333 332 331 331 335 339 342 339 337 342 339 338 341 332 330 342 344 343 341 335 338 342 341 335 332 342 342 332 338 347 342 338 340 343 340 338 335 331 333 336 335 336 337 338
310 313 315 316 315 315 318 318 317 319 318 317 317 317 315 317 323 325 326 320 317 322 322 318 319 318 319 318 318 323 322 321 321 319 320 321 323 322 325 331 329 329 334 331 332 332 331 335 336 339 344 338 339 346 337 335 340 331 332 343 343 343 344 340 342 347 344 334 330 340 335 327 339 348 343 337 337 343 346 343 339 332 331 334 334 335 336 335
308 311 314 315 315 316 317 316 316 318 318 318 318 317 316 319 323 328 327 319 316 323 322 318 319 318 319 319 318 321 321 320 320 320 320 319 323 322 322 328 330 331 329 327 336 333 327 333 334 337 343 340 340 339 331 335 340 331 330 336 335 338 343 344 346 347 342 335 332 336 331 326 338 348 344 332 331 345 350 348 346 335 330 332 333 334 334 334
307 308 312 315 314 315 316 316 318 318 318 318 319 318 317 325 336 327 318 318 320 322 319 317 319 318 320 320 320 321 319 320 322 319 320 321 322 320 319 323 327 334 331 326 334 332 325 329 332 336 339 336 334 329 328 334 334 331 337 339 336 342 348 349 351 346 340 339 337 337 335 329 332 345 345 331 331 343 347 347 349 343 336 333 332 333 334 333
305 307 310 313 314 315 316 318 319 318 319 319 318 319 319 331 343 328 319 320 320 321 321 318 319 319 320 320 321 322 319 320 322 319 321 322 320 321 320 319 329 341 337 328 331 332 326 326 330 333 333 332 333 331 329 332 332 338 349 343 334 339 343 342 346 342 336 338 338 340 339 330 330 341 342 337 340 343 341 342 345 348 346 338 332 332 333 333
304 306 309 312 314 315 317 320 319 317 319 319 319 328 333 328 327 325 326 323 319 324 323 318 319 320 320 320 320 321 319 320 320 320 323 321 321 324 321 324 335 333 327 328 329 328 328 331 329 326 329 333 337 338 332 333 339 339 342 341 337 338 337 335 340 338 334 333 333 337 336 328 334 341 336 341 344 341 341 341 340 344 348 345 335 331 334 333
304 305 308 312 315 316 317 319 319 319 320 319 322 336 340 327 324 327 327 322 320 324 320 317 322 322 318 319 322 321 318 320 320 319 320 321 321 322 319 325 333 327 326 331 325 321 326 332 329 323 327 331 335 340 334 334 341 335 334 338 337 340 336 333 338 333 330 333 332 334 334 331 337 339 338 345 341 336 339 340 340 342 345 345 335 331 335 334
304 305 309 313 315 318 321 320 320 321 319 320 327 333 326 322 330 332 327 327 326 322 321 323 326 325 320 319 322 321 318 319 320 318 320 321 320 322 322 320 324 333 341 331 322 325 325 327 332 328 328 330 331 337 336 336 338 335 338 337 332 339 336 330 336 334 331 336 334 330 329 332 335 332 337 343 337 336 339 339 340 342 342 337 331 335 338 336
303 305 311 315 316 321 324 322 322 320 318 326 335 332 323 321 328 331 331 335 330 325 326 325 326 327 324 323 322 320 317 318 320 318 320 321 321 328 329 321 321 332 337 325 322 327 321 324 336 327 325 332 331 332 334 335 335 332 335 332 327 336 339 331 332 337 336 334 333 330 329 337 339 331 336 341 335 336 337 336 338 342 342 336 335 341 339 337
305 308 312 316 318 322 323 323 323 318 321 333 332 327 329 325 323 327 332 330 324 327 329 327 327 325 321 323 323 319 316 318 320 318 318 319 320 326 328 324 324 326 332 335 331 325 319 328 336 323 323 331 329 331 332 329 333 332 328 331 330 332 341 336 328 333 336 330 332 332 330 341 339 326 336 343 335 334 336 334 337 339 341 340 343 344 340 338
310 313 315 317 319 322 323 324 322 319 325 332 326 328 335 329 323 329 331 325 321 327 330 326 325 321 315 318 323 322 317 318 319 317 320 321 317 321 324 323 322 322 330 337 332 327 327 331 333 324 323 325 324 329 328 323 332 335 330 334 331 324 333 339 332 336 336 330 337 336 330 339 336 327 338 340 331 336 340 338 338 339 342 345 347 343 338 337
313 315 317 319 319 321 325 323 320 323 329 328 329 335 334 326 324 327 327 323 321 327 328 325 324 322 317 317 323 324 316 317 320 319 321 320 317 322 323 320 322 321 324 327 324 326 328 327 328 326 321 321 323 326 326 322 325 332 333 330 326 325 329 330 329 336 333 326 335 338 333 336 335 337 344 337 334 343 341 339 340 340 345 351 349 340 335 335
314 318 324 323 318 320 325 322 322 329 329 325 331 333 326 325 329 329 326 322 320 324 328 328 325 323 323 323 326 326 319 319 322 319 317 315 318 322 319 319 321 318 321 324 323 327 331 325 322 324 322 320 322 325 327 326 321 324 327 324 327 337 336 328 326 331 331 327 331 334 334 336 339 346 350 340 344 350 342 342 345 343 346 350 350 344 336 334
313 321 328 323 317 321 325 322 325 332 327 326 333 330 322 325 327 327 327 322 320 323 328 330 326 324 330 329 325 326 324 321 321 319 317 315 317 321 319 320 321 319 320 322 325 331 331 322 321 327 325 319 321 323 325 328 324 323 326 323 324 329 328 326 324 324 330 333 334 332 332 340 345 344 345 342 345 350 346 343 346 346 347 347 346 345 338 334
312 322 327 320 315 320 324 324 327 330 327 327 329 328 325 325 322 322 325 321 320 322 323 328 327 325 328 328 324 325 326 324 321 318 318 316 316 318 319 321 321 320 319 320 328 334 327 327 334 332 320 319 328 326 324 328 326 327 331 328 327 327 326 327 324 323 329 332 336 333 327 338 348 336 337 342 338 341 343 341 344 347 346 346 343 338 337 336
315 323 323 315 314 317 324 331 331 328 329 329 328 326 326 325 323 323 324 321 321 321 320 323 325 324 326 325 325 327 327 327 323 318 319 319 318 319 321 323 321 320 323 324 328 336 340 342 338 329 323 327 328 321 320 323 323 325 328 330 332 331 332 334 329 327 327 324 330 332 326 339 352 337 335 339 334 334 336 337 343 342 339 343 341 336 337 338
315 318 316 310 313 318 322 331 331 327 331 332 328 325 324 324 325 324 325 324 323 322 321 322 323 324 326 324 323 325 325 326 324 321 322 323 321 321 321 321 321 320 325 327 326 333 342 338 325 326 338 341 330 324 324 323 324 324 323 326 331 329 331 338 340 340 335 326 328 327 324 342 354 339 334 338 337 338 336 335 339 340 341 343 341 340 342 341
313 313 315 312 314 318 321 329 333 333 336 332 327 327 326 325 326 325 326 327 326 325 324 325 326 324 323 322 323 325 325 322 323 324 325 323 323 324 322 323 324 322 325 329 329 329 327 326 323 323 328 330 324 327 329 326 327 331 327 323 327 332 332 329 334 340 334 328 330 327 328 345 353 340 336 338 338 341 339 337 339 339 346 351 348 348 347 342
313 315 316 315 316 319 323 330 332 333 336 332 329 332 329 326 328 327 327 326 326 326 326 329 328 324 323 322 322 325 325 322 322 325 324 323 325 326 323 321 319 322 336 342 337 330 327 335 342 331 321 321 322 326 332 331 327 328 328 325 323 331 332 325 326 328 324 324 329 330 335 346 347 339 336 336 337 340 341 339 339 339 345 352 352 349 347 344
314 319 320 319 320 321 323 325 323 325 330 329 328 331 329 329 331 327 326 326 324 325 327 328 327 324 324 324 323 328 329 325 322 324 325 327 327 324 325 330 330 335 352 353 345 345 341 341 352 345 327 322 328 335 338 335 327 321 323 324 324 329 335 333 329 326 327 327 328 336 340 335 335 338 336 337 341 342 343 342 343 344 345 348 350 349 348 344
314 318 320 319 320 322 322 321 318 320 324 324 328 330 328 331 331 327 327 326 323 325 326 325 325 324 325 325 325 328 330 330 327 325 326 328 327 325 328 340 350 350 353 346 344 356 346 329 335 344 331 324 332 337 330 327 328 325 323 324 327 332 332 329 329 331 333 326 326 345 346 326 329 344 342 341 346 346 349 348 347 348 347 347 350 354 353 346
314 317 317 316 318 321 321 319 318 319 320 322 329 331 328 329 330 329 329 326 324 324 326 329 329 324 324 324 323 325 329 331 329 328 330 329 329 332 330 332 340 346 346 338 340 358 354 328 324 332 329 327 332 333 328 327 328 328 329 327 329 333 330 326 334 341 336 324 328 349 348 330 335 348 343 342 342 340 344 345 345 349 350 349 352 357 358 352
313 316 316 315 317 317 317 317 317 320 321 322 329 332 329 329 330 328 326 326 330 327 324 331 331 323 323 324 322 325 328 326 326 332 336 332 329 333 334 330 330 334 341 339 336 344 344 328 328 336 331 327 333 336 332 328 324 325 331 332 331 333 328 326 338 340 332 329 336 345 345 338 338 341 338 337 334 334 338 340 344 349 352 352 355 359 360 357
312 314 314 314 315 316 317 318 319 320 319 320 327 331 329 329 329 327 324 325 332 330 323 326 328 322 324 327 324 324 325 322 324 329 330 328 330 333 337 339 333 328 335 338 333 335 332 324 334 348 334 322 332 340 335 333 330 326 327 332 335 334 326 326 336 334 327 332 339 339 339 340 341 339 336 335 336 339 340 341 346 348 349 354 357 358 359 358
310 311 312 313 314 315 317 319 318 319 319 322 326 327 327 327 325 325 328 325 325 326 323 324 326 324 326 330 326 323 323 322 323 324 323 324 327 330 331 334 333 332 335 334 330 340 346 333 333 342 330 321 329 336 338 339 333 325 327 331 334 335 331 330 336 335 331 337 340 334 332 336 341 338 335 337 340 342 342 344 347 346 348 356 360 359 360 359
307 308 310 312 314 314 315 316 316 316 318 321 322 321 322 323 322 325 331 328 322 322 321 322 326 326 328 330 326 323 322 322 322 322 322 321 321 325 327 328 333 339 341 341 337 343 352 341 332 334 327 321 330 339 341 334 324 325 338 341 335 337 338 336 341 344 340 341 342 336 331 335 339 336 337 340 341 342 343 346 348 347 349 353 355 357 356 352
Wind_Speed
28 26 24 22 21 20 20 20 20 19 18 17 17 16 14 11 9 8 7 6 5 5 5 6 6 6 7 8 9 11 11 12 11 8 9 16 21 20 19 17 15 14 10 8 8 8 8 6 5 7 8 4 1 1 2 2 2 3 3 2 1 2 2 3 5 5 4 4 5 4 3 6 3 1 1 3 6 4 3 4 3 4 5 4 4 6 8 6
29 28 26 24 22 21 20 20 19 19 18 17 16 16 14 12 10 8 7 7 6 5 6 7 8 8 8 8 9 10 10 10 8 9 15 14 14 19 21 21 20 19 15 10 7 4 3 5 3 6 5 3 1 1 1 2 3 3 3 2 2 4 2 2 5 5 3 6 6 3 3 5 4 2 1 2 3 3 4 4 4 5 5 5 6 9 9 8
30 29 28 25 23 22 21 20 19 19 18 16 15 15 15 13 10 8 7 7 6 6 7 8 9 9 9 9 10 9 7 5 4 8 10 5 5 9 11 15 18 18 15 10 6 2 1 2 2 4 4 3 2 2 3 3 2 2 3 2 3 5 2 1 4 5 4 7 8 4 3 4 3 1 2 3 2 3 3 1 2 3 1 3 4 7 9 10
30 29 28 27 24 22 21 20 20 19 18 16 15 15 14 13 11 8 7 7 7 6 6 7 8 9 9 10 10 8 4 3 2 6 3 5 3 3 2 6 11 13 13 8 5 3 0 3 4 4 4 3 3 3 3 2 1 2 2 2 4 3 2 1 2 5 5 7 8 5 4 4 2 2 3 5 3 2 2 4 4 5 5 4 0 3 7 9
30 30 29 28 26 24 22 21 20 19 18 16 14 14 14 13 11 9 7 6 6 6 6 6 7 8 9 10 9 7 4 5 3 6 3 4 4 3 2 2 4 9 9 6 3 2 1 3 5 5 4 3 4 3 2 2 2 3 2 1 2 3 3 1 3 6 6 6 7 6 6 4 2 2 3 6 4 2 4 5 6 6 7 6 3 2 4 6
30 30 29 28 27 25 23 21 20 19 18 16 14 13 13 13 11 9 7 6 6 6 5 5 6 7 8 8 6 3 2 2 5 6 4 3 3 3 3 2 4 5 6 6 2 2 3 4 5 3 3 3 2 2 1 2 3 3 1 2 2 3 4 2 4 6 6 8 6 6 4 3 4 2 2 5 3 4 4 5 7 6 7 6 5 4 4 4
30 30 30 29 28 26 24 22 20 19 18 16 14 13 13 12 11 9 7 6 5 5 5 4 5 6 7 7 4 2 3 4 9 5 4 3 2 4 4 4 5 6 8 7 4 4 4 4 4 3 4 3 1 2 2 3 5 5 1 2 3 5 6 4 5 5 6 8 5 5 4 3 5 3 2 2 3 4 4 3 6 5 6 6 5 4 3 3
31 31 30 30 29 27 26 23 21 19 18 16 14 13 12 12 11 9 7 5 5 5 4 3 5 5 6 5 2 2 0 6 7 4 6 5 4 5 6 6 5 8 9 9 7 6 4 5 4 3 3 2 2 2 2 5 5 4 2 1 3 5 5 5 6 6 6 6 5 6 5 3 4 4 3 3 5 3 3 3 5 5 5 5 5 4 4 3
32 32 31 31 30 29 27 25 23 20 18 16 14 13 12 11 11 9 6 5 5 4 3 3 4 4 4 2 3 3 4 4 6 6 6 6 7 6 8 7 7 9 8 8 8 7 4 3 4 4 4 2 3 3 2 4 2 1 3 2 4 4 4 6 5 6 5 3 5 7 4 1 2 2 2 4 5 3 3 5 5 5 5 4 4 4 4 4
32 33 33 32 31 30 29 27 24 21 18 16 14 12 11 11 10 9 6 5 4 4 3 3 4 3 3 0 5 3 5 5 8 7 7 5 6 6 9 9 10 10 7 7 8 8 6 5 5 4 6 2 3 3 1 3 2 2 6 5 6 6 3 4 5 5 5 3 4 6 3 1 1 1 1 5 4 3 4 5 3 4 5 5 4 4 4 5
33 34 33 33 32 31 30 29 26 22 18 16 13 11 11 10 9 8 6 4 4 4 3 4 3 2 2 2 3 2 4 6 9 8 8 7 6 6 8 10 12 13 10 6 8 13 8 8 8 3 4 2 3 3 3 3 5 6 7 6 6 5 4 4 5 3 3 3 3 6 4 2 2 1 3 5 3 4 5 5 3 4 5 5 4 4 3 4
34 35 34 34 34 33 32 31 28 23 19 15 12 11 10 10 9 8 6 4 4 3 4 4 2 2 2 2 4 5 5 8 9 10 9 8 7 6 6 7 11 14 13 7 9 15 12 13 10 4 2 4 3 2 2 3 6 6 6 6 4 5 4 2 3 2 2 1 4 6 4 4 2 3 5 3 5 4 4 5 4 5 5 4 4 3 3 5
35 35 35 35 35 35 34 32 29 24 19 14 11 10 10 10 8 7 6 4 4 3 3 3 2 2 2 1 7 7 7 10 9 8 8 8 7 6 7 5 7 11 13 8 10 15 14 15 10 6 4 5 3 1 4 4 5 4 4 5 2 5 3 3 2 2 1 1 4 5 3 5 5 7 5 2 6 6 4 5 5 5 5 4 4 3 4 4
36 36 37 37 37 36 35 34 30 25 19 14 12 9 9 9 7 7 5 4 4 3 2 2 2 1 3 5 12 9 9 11 8 4 6 7 3 2 3 2 3 6 9 6 8 14 16 16 11 6 2 3 3 3 5 5 5 4 3 3 2 3 3 4 2 5 2 1 2 5 1 5 6 7 5 4 7 7 6 7 6 5 5 4 4 4 4 4
36 37 38 38 38 37 36 35 31 25 20 16 13 10 9 7 6 6 5 4 3 2 2 1 1 1 2 7 10 10 11 9 5 2 4 7 4 3 3 8 8 6 8 9 13 16 17 17 10 4 1 3 5 5 4 3 4 3 2 3 2 2 3 5 2 7 4 1 0 4 1 5 5 6 4 5 6 7 7 6 5 5 5 5 4 4 4 4
36 37 38 38 38 38 37 35 29 24 20 16 12 10 8 6 5 4 5 4 3 3 2 2 1 2 1 5 8 10 7 5 6 5 3 8 5 6 11 14 12 13 14 15 19 18 14 12 5 2 3 3 6 6 4 4 4 3 3 1 1 1 2 3 2 5 6 3 1 2 1 3 3 5 3 5 7 6 6 6 5 5 5 5 4 4 4 3
36 37 38 38 39 39 38 34 26 23 21 15 10 8 6 4 4 4 5 5 5 4 3 2 1 2 2 6 8 7 3 4 9 9 4 9 7 12 15 10 7 9 11 11 14 11 7 6 2 1 3 3 3 5 4 2 3 2 2 1 2 2 1 2 3 3 6 5 2 3 2 5 4 5 3 4 6 6 6 7 6 5 5 5 4 4 4 4
36 37 38 39 39 39 38 31 24 23 21 13 6 1 5 5 6 6 8 8 6 4 3 1 2 2 3 4 4 4 4 8 13 12 6 8 10 13 11 6 5 7 7 5 5 4 4 4 2 1 3 3 2 5 4 2 4 4 2 1 1 2 2 3 4 3 6 5 4 4 4 9 8 5 3 4 5 6 7 6 5 5 5 5 4 4 4 5
36 37 38 39 39 39 38 29 22 23 20 12 9 9 10 8 7 6 7 7 3 1 1 2 2 1 3 3 5 8 10 13 14 9 4 9 10 10 7 7 7 6 4 2 2 2 2 3 4 3 1 1 4 5 6 6 6 7 5 4 3 2 3 5 4 4 7 5 3 6 5 8 7 5 4 4 4 6 6 5 4 5 5 5 4 4 4 5
35 36 37 38 38 38 36 27 19 21 20 11 5 7 7 5 4 2 4 2 3 3 3 4 4 3 5 6 6 9 13 11 6 1 6 10 11 8 5 5 5 5 3 2 1 1 4 4 1 4 6 7 8 6 5 4 4 6 5 3 3 3 3 4 3 3 7 5 4 6 4 7 7 5 4 3 3 5 7 6 6 6 5 5 5 5 5 5
35 36 36 37 37 37 35 25 16 19 19 16 10 6 4 3 2 2 5 5 6 5 6 7 5 6 9 8 6 5 6 5 3 1 5 10 11 8 0 2 4 1 1 2 2 2 5 3 5 7 9 8 6 5 6 5 4 4 5 3 1 3 4 4 2 4 6 3 3 3 3 8 8 5 4 4 5 7 9 8 8 8 6 5 5 6 5 3
34 35 36 37 36 36 34 22 14 15 16 20 18 8 3 3 4 4 3 4 7 5 7 6 3 7 10 11 11 3 2 2 6 5 6 9 7 6 2 3 5 3 2 2 2 4 4 2 8 7 6 5 5 5 6 5 5 4 3 3 1 3 3 3 2 3 6 3 3 2 4 7 7 5 5 6 7 7 7 8 8 7 6 6 6 6 4 4
34 35 35 37 35 36 33 18 12 15 16 17 12 7 4 10 10 3 3 1 7 4 4 4 3 6 6 8 8 5 3 3 4 6 8 10 3 5 4 3 5 3 1 2 3 2 0 5 6 5 8 8 6 4 6 6 3 3 3 4 2 3 2 1 3 2 4 2 1 2 2 5 5 4 5 6 7 5 4 7 7 6 7 7 7 5 5 6
33 34 35 37 35 35 30 14 10 18 20 11 4 5 13 17 14 3 4 1 4 5 4 6 5 5 6 5 6 9 3 4 4 5 8 12 4 2 5 4 4 1 2 4 6 4 4 6 2 7 7 7 7 3 5 5 0 1 3 5 3 3 4 3 2 3 2 2 2 4 3 5 4 3 5 3 3 4 4 6 6 6 7 6 6 6 6 7
33 34 34 36 34 36 28 9 10 24 22 6 3 10 18 18 16 4 3 2 3 6 4 4 3 5 6 3 7 8 1 2 6 5 9 13 8 3 2 2 3 3 4 6 6 2 5 5 4 8 4 5 7 3 4 6 2 3 4 7 6 5 5 5 6 5 4 4 2 3 2 5 4 3 6 3 2 5 3 5 8 8 6 5 6 6 6 6
33 32 34 35 34 37 24 3 13 28 18 1 3 16 18 17 15 1 4 5 2 5 2 3 2 3 5 3 5 4 3 4 7 6 8 12 11 6 2 1 1 3 5 5 4 1 2 1 5 7 5 5 5 2 4 6 4 2 3 6 5 6 8 8 7 4 2 2 2 3 4 3 5 4 6 4 3 6 4 5 9 7 6 6 6 6 6 6
32 31 33 33 33 35 17 3 18 22 6 2 12 18 17 17 12 2 3 6 3 4 2 2 1 3 4 3 5 5 2 5 4 3 6 11 9 4 3 4 0 2 4 4 1 2 3 3 5 5 6 5 3 3 5 7 6 2 3 5 6 7 8 8 6 4 2 2 2 4 4 1 4 5 5 3 3 6 6 7 8 7 7 8 7 7 7 7
31 31 32 32 34 30 13 9 19 12 2 10 18 17 17 16 7 3 4 4 3 2 3 2 1 3 1 1 5 5 3 3 0 2 2 9 7 4 2 6 5 5 3 5 2 4 3 5 5 6 5 3 4 4 7 9 5 3 1 6 6 6 6 5 6 4 1 2 2 4 2 1 4 5 4 2 1 6 7 8 8 7 8 8 7 7 7 8
30 31 31 32 33 26 14 14 15 7 8 16 18 18 17 11 3 4 5 2 2 1 1 1 1 1 2 2 2 1 2 1 1 3 2 5 3 3 3 5 5 5 2 4 5 3 1 5 8 8 5 4 4 3 7 8 4 2 4 8 7 6 5 5 5 4 3 3 3 5 1 1 4 5 4 2 1 5 6 7 7 6 7 7 8 7 7 6
30 30 30 32 32 24 19 19 13 7 13 19 19 18 12 5 4 5 2 2 2 1 1 0 1 1 2 3 2 3 1 2 1 2 3 2 1 4 3 3 6 5 0 3 1 2 1 1 4 5 4 5 4 3 2 5 7 5 4 7 6 6 5 4 3 4 4 3 5 6 1 2 2 5 3 1 3 5 4 5 6 5 5 7 7 6 6 6
30 30 29 31 30 23 15 13 11 12 18 19 17 13 5 3 4 5 3 4 2 2 1 1 1 1 4 4 3 2 2 3 2 2 1 0 3 4 2 1 4 4 3 4 3 4 4 3 1 2 3 5 6 5 3 3 6 6 4 5 4 4 4 4 4 4 4 2 5 5 2 2 1 4 3 3 5 5 4 4 6 6 6 7 6 6 6 6
30 30 29 28 27 22 14 12 17 19 18 13 10 5 3 2 1 3 4 4 2 1 0 1 1 1 2 1 2 3 2 2 1 3 4 2 2 3 3 4 2 3 3 3 2 4 3 1 2 2 2 5 6 5 4 5 5 5 4 5 4 3 3 2 3 2 0 3 3 2 2 1 3 6 5 5 6 6 6 6 6 6 6 6 6 5 5 5
30 30 29 26 26 25 20 17 17 14 10 5 4 4 6 3 3 5 4 3 1 2 0 1 2 0 2 1 2 3 1 2 2 1 2 2 2 3 2 3 6 4 1 3 1 1 3 5 3 2 1 2 7 6 2 1 1 4 4 4 4 2 3 1 3 2 1 3 2 3 2 1 3 4 5 6 6 5 6 6 6 6 6 6 5 4 4 5
31 29 29 26 22 21 16 13 10 7 3 2 3 4 5 3 4 4 3 3 2 3 2 1 3 2 2 1 4 3 2 3 3 4 2 2 2 3 3 3 3 4 3 3 2 3 2 4 3 4 2 4 6 6 6 5 3 3 4 5 4 4 3 1 3 2 2 2 3 4 1 2 2 3 5 6 5 5 4 5 5 5 5 4 2 3 5 5
31 28 26 21 16 15 13 10 7 5 2 3 6 4 4 4 4 1 2 4 2 3 4 2 1 2 1 3 3 2 3 3 1 3 2 3 4 4 3 4 5 3 4 4 2 2 4 4 7 2 2 9 8 3 5 6 3 2 3 4 1 3 5 2 1 4 2 1 2 2 2 3 3 4 5 3 3 3 3 3 2 4 4 1 3 4 5 5
31 27 20 15 14 16 15 10 6 7 5 5 5 2 4 4 3 3 2 2 1 2 4 5 2 2 2 4 3 2 2 2 0 1 1 2 3 5 4 4 6 6 5 5 3 2 3 5 6 2 0 6 7 5 4 4 3 2 2 2 4 3 7 5 1 1 3 2 2 2 2 5 3 2 5 4 1 2 3 3 2 4 3 2 4 5 5 5
31 25 15 13 17 18 13 6 7 8 4 6 4 4 4 3 3 4 1 1 1 1 3 3 2 0 1 2 3 3 1 1 1 1 2 2 2 5 5 4 5 9 9 5 2 3 4 3 6 2 3 4 2 7 4 2 5 4 2 5 3 3 5 4 2 3 4 1 3 2 2 5 2 0 4 4 1 5 4 3 3 4 2 3 5 5 5 5
26 18 10 8 18 19 7 3 8 5 4 4 3 4 3 2 2 3 1 0 1 2 4 1 3 1 1 1 3 3 3 3 2 2 2 2 3 5 5 3 5 10 11 7 2 2 4 1 7 1 4 2 2 6 4 3 3 4 4 4 4 3 1 2 2 0 1 0 3 4 3 3 3 3 4 2 5 7 5 3 3 4 4 5 6 5 5 5
15 9 4 2 19 20 2 7 3 2 5 3 4 3 3 3 3 4 2 0 1 1 1 3 2 1 0 2 3 3 2 4 3 3 3 2 4 4 4 3 5 8 9 8 5 1 3 3 4 3 1 2 3 3 2 2 1 3 2 3 3 3 3 2 2 2 2 1 2 3 4 3 5 5 4 6 7 7 6 4 5 7 7 6 6 5 5 6
6 5 3 1 18 16 2 4 2 3 3 3 4 2 2 2 3 5 4 2 1 1 2 3 2 0 3 3 2 3 2 3 4 3 2 4 4 5 4 4 3 4 5 5 5 2 3 3 3 4 3 2 2 3 6 6 3 2 2 2 0 1 2 2 1 1 3 3 2 1 2 5 6 4 6 8 8 7 7 6 6 7 7 7 7 6 6 6
4 3 3 3 17 13 2 0 3 2 1 2 2 2 3 1 2 5 5 3 3 3 3 4 3 3 3 2 3 3 1 2 4 3 3 4 4 4 5 7 6 5 5 5 3 3 2 3 4 1 1 3 4 5 6 9 8 6 5 5 4 3 4 3 1 1 2 3 4 3 1 6 6 3 6 7 5 6 6 6 6 6 6 7 6 6 6 6
2 1 7 9 17 13 3 1 2 1 1 2 2 3 2 1 1 3 4 1 2 3 1 2 3 4 3 4 4 3 1 2 3 4 3 5 7 6 5 5 9 9 7 4 3 4 3 4 4 2 4 6 5 3 3 6 6 5 3 3 4 3 4 5 3 3 2 3 2 3 1 6 6 3 5 5 4 4 5 6 6 5 5 6 6 5 5 5
2 5 13 14 14 10 4 1 3 1 1 3 3 2 1 1 1 2 3 2 1 2 1 1 3 4 5 5 4 3 3 3 3 4 4 3 6 8 5 6 9 8 5 3 2 2 2 4 3 1 4 4 3 3 3 3 6 5 0 2 5 3 3 5 5 3 4 3 2 2 1 6 5 3 3 4 4 3 3 5 5 5 4 5 5 5 5 5
1 5 9 12 12 6 2 2 2 2 3 3 2 3 3 1 2 3 3 2 2 1 1 3 3 3 4 3 3 3 4 3 3 4 3 3 5 5 3 8 10 8 4 4 5 4 1 2 4 3 3 4 5 5 6 4 2 3 1 1 3 5 5 4 3 4 2 3 5 4 2 7 5 4 4 2 1 2 3 3 4 4 4 4 5 4 4 4
3 2 4 9 11 5 3 3 2 2 3 2 2 3 2 2 3 4 4 4 4 3 2 4 3 2 3 2 2 4 4 4 4 3 1 3 4 3 2 6 8 5 3 4 6 6 3 3 4 6 4 3 3 3 3 2 1 1 1 2 2 5 7 4 3 4 1 3 4 5 4 6 6 4 5 4 2 3 1 2 2 3 3 3 3 3 3 3
2 1 3 6 6 4 1 1 3 2 3 2 3 3 2 3 4 3 5 3 4 4 3 4 3 2 4 3 2 5 4 3 3 2 1 3 4 4 2 3 4 3 4 8 8 6 4 2 3 7 8 7 7 7 6 4 4 1 2 3 2 4 7 6 4 3 4 4 3 5 5 3 7 5 3 4 2 3 3 2 2 1 1 0 0 0 1 2
1 1 2 3 4 4 3 4 5 5 4 3 3 3 2 3 3 2 2 1 2 2 2 2 2 3 3 4 3 3 3 1 2 2 3 4 4 4 3 3 4 3 6 8 5 4 6 2 2 5 5 7 7 5 3 1 5 5 5 4 4 5 6 7 5 5 6 7 3 8 5 3 7 7 6 6 6 5 5 5 4 2 0 0 1 1 2 1
1 1 1 3 3 2 3 5 7 7 7 5 3 2 2 3 2 2 2 2 3 4 2 2 5 6 5 4 3 3 3 2 2 3 3 3 3 3 4 3 2 1 3 4 3 4 7 2 3 4 1 3 3 1 2 1 1 4 5 5 5 7 8 8 6 7 9 8 6 7 8 7 8 7 7 8 6 5 5 4 3 3 2 1 1 2 2 1
1 2 2 3 2 3 4 6 7 7 7 6 3 2 2 3 3 2 2 3 4 5 4 2 7 11 9 5 3 2 3 4 3 4 2 2 2 0 2 1 1 3 4 4 2 2 6 2 2 4 4 2 3 4 2 3 1 1 1 2 4 7 8 6 4 5 7 5 4 6 8 9 8 7 7 6 4 2 2 2 3 4 3 2 2 1 2 3
2 2 3 3 3 4 4 4 4 5 6 6 4 3 2 1 2 3 3 2 2 3 4 3 8 13 10 6 0 3 5 5 4 6 4 5 5 1 2 3 3 3 4 3 1 2 4 2 1 4 5 3 6 5 3 4 2 2 2 3 3 5 3 2 2 3 3 1 1 6 4 7 7 4 4 2 4 4 4 4 4 3 3 3 3 1 3 4
6 6 5 4 3 3 3 3 3 4 5 3 2 3 4 3 5 4 4 3 1 1 4 5 9 10 7 4 5 7 11 10 9 11 9 7 7 4 2 2 6 4 2 2 1 3 5 3 0 5 5 3 3 4 4 4 6 3 4 3 3 5 3 2 3 4 5 5 4 6 3 6 6 3 2 3 5 6 4 4 4 3 3 4 4 3 4 4
8 7 6 4 3 3 3 4 4 3 3 3 3 6 6 6 8 6 3 3 2 4 5 6 7 7 5 5 8 11 14 14 14 15 11 8 9 8 5 3 5 6 4 3 2 2 4 5 2 4 4 4 3 4 4 4 6 3 6 5 6 4 3 3 1 3 5 7 7 5 5 5 4 3 4 3 4 6 5 5 4 3 4 3 3 4 4 5
Wind_Direction
18 18 17 16 15 13 11 10 9 7 5 1 1 2 2 1 3 14 16 10 6 350 340 332 325 313 298 296 295 291 291 283 280 271 249 261 265 260 255 255 261 266 271 283 306 324 327 358 70 116 118 117 76 164 142 80 72 67 77 99 157 192 200 196 173 179 161 150 169 191 173 123 126 96 81 38 46 51 40 27 13 35 43 68 75 67 68 67
17 17 16 15 13 11 10 8 7 5 3 358 357 357 357 358 357 6 8 1 2 351 344 339 335 322 307 306 302 303 302 289 286 261 254 271 279 268 262 259 259 262 266 275 299 334 350 349 74 115 92 69 21 33 80 41 62 88 108 92 215 202 200 205 164 164 153 144 150 159 145 123 138 150 76 82 44 33 66 27 21 56 44 44 54 64 69 61
15 15 14 14 12 11 9 6 5 2 1 357 352 351 352 355 353 356 1 355 354 353 351 347 337 323 318 317 317 317 306 298 301 265 267 313 303 271 264 256 254 256 259 259 278 304 46 0 88 107 60 50 17 35 50 35 63 120 110 87 235 204 180 236 162 157 150 140 132 129 133 106 122 122 62 117 84 31 107 146 73 91 85 50 26 52 76 72
12 13 12 12 11 10 8 5 3 360 358 355 349 346 347 350 351 349 354 351 350 354 354 350 334 322 325 324 328 329 327 13 301 263 314 20 357 324 298 248 244 245 247 245 261 263 230 38 63 74 69 52 350 35 60 6 94 105 96 154 207 159 108 338 149 133 119 126 126 123 109 104 138 88 99 122 80 344 239 206 176 167 171 159 254 47 85 88
10 10 10 10 9 8 7 4 1 358 355 352 347 342 341 346 349 345 347 351 349 349 350 351 335 327 328 326 332 330 1 48 271 266 315 337 327 313 291 260 223 227 229 225 250 244 127 51 64 56 64 60 352 32 52 321 94 75 22 140 164 131 113 0 111 118 113 106 104 114 118 133 140 72 127 127 107 238 233 200 182 173 173 170 170 123 89 95
10 8 8 8 7 6 5 2 359 356 352 349 345 338 337 341 344 343 341 347 348 343 347 350 339 335 330 332 338 336 55 92 264 276 294 299 310 269 243 237 202 198 202 199 209 115 99 59 58 54 59 53 12 66 45 336 73 91 15 27 52 123 126 128 118 117 118 111 112 131 135 123 101 73 166 134 146 238 238 187 172 174 173 158 140 130 118 124
9 8 7 6 6 4 3 1 358 354 350 346 341 334 333 335 340 341 334 342 345 338 342 343 339 338 336 338 339 39 90 253 267 263 268 284 272 246 226 223 199 182 184 173 148 120 112 77 77 103 83 69 87 78 33 13 56 90 95 26 47 89 114 130 124 117 115 118 135 133 114 116 127 132 151 196 249 252 246 188 151 153 155 142 133 147 166 172
8 7 6 5 4 3 2 -0 356 352 347 343 337 331 330 331 335 335 330 333 335 334 334 331 332 336 342 341 334 6 307 252 275 272 268 267 258 250 221 212 192 185 179 170 165 149 127 101 127 136 81 95 125 99 59 45 40 73 104 90 77 77 103 117 110 110 105 107 126 115 112 166 184 150 135 245 258 225 199 153 124 128 131 142 158 175 188 189
7 6 5 4 3 2 1 359 355 350 344 340 333 327 324 326 330 331 324 321 326 326 321 316 314 332 342 343 73 3 272 267 323 316 301 275 260 253 222 211 198 194 179 181 178 155 163 146 168 168 129 160 112 116 119 71 41 125 95 88 96 89 103 113 107 111 109 107 128 115 98 217 236 143 128 252 237 206 157 131 125 129 142 176 191 193 193 193
6 4 4 2 2 1 360 357 354 348 343 336 329 323 318 319 324 323 314 311 318 309 305 300 297 330 330 15 68 7 282 341 348 317 320 303 260 237 223 219 211 205 183 181 175 165 179 163 176 159 121 120 94 108 72 94 150 108 84 71 83 100 100 104 111 117 107 85 120 117 95 294 285 72 259 253 219 159 138 145 147 147 181 206 208 212 201 207
4 3 2 1 1 0 359 356 352 347 341 334 328 319 312 312 316 315 305 299 302 291 287 288 287 314 297 140 103 260 276 355 349 328 325 313 283 253 238 225 218 211 190 173 189 191 176 150 159 133 101 111 105 89 13 86 109 95 98 72 52 77 68 77 108 138 105 69 122 113 87 328 338 346 238 232 177 139 156 175 193 189 216 222 214 221 201 222
2 0 0 0 360 359 358 355 350 346 340 333 327 317 308 305 306 303 292 288 281 271 279 280 268 298 327 140 187 240 302 332 320 310 306 305 303 297 291 250 231 219 194 173 203 199 168 152 148 95 117 131 102 90 62 83 91 92 95 76 32 42 50 90 121 171 94 101 178 114 58 327 288 241 261 229 142 131 163 190 218 221 236 241 233 237 209 224
359 359 359 359 359 358 357 354 350 345 340 335 328 318 303 295 298 292 279 269 253 257 268 267 284 311 25 253 258 282 318 322 310 284 271 287 302 307 312 272 236 229 211 200 204 192 164 156 141 95 120 107 90 144 96 66 64 71 58 78 56 23 4 231 145 154 77 153 187 108 36 294 260 244 262 194 145 136 170 209 224 229 241 247 242 244 235 221
357 357 357 358 357 356 356 354 350 345 341 337 331 318 297 286 287 275 261 245 234 242 241 260 317 352 93 272 284 312 326 321 313 260 234 255 278 353 297 209 200 227 216 202 175 172 157 143 120 92 100 85 110 104 64 35 36 59 31 45 66 48 295 269 150 152 138 217 178 84 63 267 277 267 244 181 160 156 186 220 225 227 238 244 245 240 246 228
355 355 356 356 356 356 355 354 350 346 342 337 328 309 289 277 272 260 238 217 206 204 217 319 355 84 39 287 293 329 330 328 325 275 218 225 196 108 146 129 115 116 126 119 124 138 139 123 97 77 62 35 87 84 53 26 19 50 56 344 359 71 292 293 177 163 155 179 75 88 131 265 283 284 246 175 163 170 196 225 230 240 247 246 252 241 247 248
353 353 354 354 355 356 355 354 351 348 348 340 321 296 278 261 247 227 203 187 172 175 142 64 68 104 43 286 311 338 334 354 354 334 242 223 207 143 133 117 104 100 99 102 111 116 110 96 71 65 101 67 86 94 71 42 0 14 83 233 270 101 302 303 226 185 155 123 15 143 212 277 291 309 280 176 168 179 208 240 240 247 254 247 253 244 242 248
352 351 352 353 354 355 356 355 353 356 358 344 312 276 253 223 197 171 150 126 130 142 111 80 59 55 276 278 308 323 324 353 350 343 282 239 207 149 129 106 89 94 90 90 103 97 61 57 60 33 64 65 96 100 74 25 294 302 58 114 231 183 188 277 280 226 149 133 192 195 237 255 265 308 286 194 174 179 212 241 247 250 258 257 254 248 242 229
350 350 351 352 353 355 356 356 359 4 7 3 2 168 178 147 127 126 115 103 109 105 65 3 50 35 276 289 305 291 302 316 325 331 289 231 190 152 130 107 104 91 65 57 78 65 25 30 66 77 41 37 81 104 112 216 211 197 174 152 232 206 191 225 256 215 153 147 177 173 241 257 266 286 255 218 178 188 221 238 255 263 263 266 259 253 243 225
349 349 350 350 352 355 356 358 4 9 16 30 57 93 115 109 100 109 99 88 98 85 304 256 108 127 243 270 288 293 311 312 312 312 225 190 172 144 108 100 107 92 79 68 34 43 71 54 61 113 142 192 195 172 180 202 177 172 176 149 162 195 236 227 238 212 156 140 189 183 225 263 273 274 247 231 189 201 237 253 266 267 265 265 260 255 240 233
348 348 348 349 351 353 356 358 6 15 23 39 71 91 87 62 53 32 4 12 211 223 250 226 181 226 271 277 289 310 318 311 298 288 160 171 155 125 80 68 64 57 95 153 180 59 88 94 148 191 201 206 202 187 163 157 141 141 131 123 171 194 258 251 243 221 147 127 230 203 232 276 276 271 255 225 195 219 238 247 253 251 257 256 252 250 237 238
346 347 348 349 349 352 356 356 11 22 27 48 65 74 73 44 39 317 322 307 258 232 236 234 205 238 265 269 282 322 337 316 289 300 169 168 145 138 250 52 85 9 267 173 152 15 61 108 228 220 204 197 181 154 122 97 84 103 122 131 213 213 241 256 228 191 154 140 257 196 218 269 270 269 251 174 183 226 227 226 240 240 246 247 243 247 233 213
345 346 347 348 348 351 353 354 13 21 31 52 60 75 106 27 350 276 274 310 288 242 218 244 249 260 263 264 269 267 79 314 308 301 174 153 141 171 223 70 137 215 285 113 82 3 29 216 242 222 175 130 108 128 118 97 90 85 106 123 250 243 227 286 311 160 157 161 283 206 202 261 271 258 230 184 194 229 222 218 229 227 236 247 241 241 215 179
344 345 346 347 346 349 351 352 10 17 23 36 51 78 21 347 350 311 191 264 294 272 208 220 224 245 260 268 248 178 147 215 275 284 179 149 153 184 152 116 159 170 37 144 146 111 46 259 245 176 135 106 86 110 111 97 91 91 114 130 243 251 167 278 314 117 143 133 135 151 200 277 285 274 247 210 206 228 222 221 230 216 222 239 235 226 203 191
342 344 345 345 345 348 349 349 7 9 4 8 68 39 354 345 358 28 170 208 293 288 234 205 201 213 230 256 193 157 180 200 189 266 183 151 138 159 161 157 142 154 225 169 144 157 234 264 178 123 124 115 108 120 122 119 168 260 174 165 208 216 171 177 152 103 53 12 86 93 16 307 309 298 272 264 228 235 225 223 239 235 226 229 226 218 205 199
341 342 343 345 345 346 347 350 2 354 347 1 117 348 345 347 354 9 158 37 296 293 284 213 221 227 215 187 169 168 174 226 211 223 178 161 152 137 178 163 132 209 209 143 129 180 255 252 129 116 111 105 115 155 176 151 180 289 224 196 190 168 144 133 124 93 41 344 326 83 46 296 318 300 264 292 286 247 235 221 237 243 231 219 220 221 213 204
339 340 342 344 343 345 351 14 344 340 336 31 354 335 340 346 350 36 134 37 301 279 291 187 173 210 206 158 166 150 63 288 244 194 170 174 164 134 133 175 90 203 178 144 143 197 233 155 103 122 127 106 109 206 223 156 123 318 230 185 164 134 130 140 138 104 96 244 302 81 129 260 318 307 271 297 280 262 275 248 243 243 232 221 216 216 209 203
336 337 340 341 342 347 352 311 328 334 335 319 327 330 335 341 347 151 111 30 301 256 184 196 107 156 195 177 148 119 122 272 275 155 173 178 169 103 136 195 179 197 170 118 64 250 170 105 79 105 106 105 133 238 220 152 122 261 245 132 119 122 140 155 137 103 145 196 349 34 108 196 299 279 279 308 283 286 292 265 255 243 232 232 222 211 204 203
333 335 337 337 339 343 338 310 324 328 298 313 321 327 332 338 347 128 84 61 273 267 156 214 225 159 211 141 146 145 208 252 72 272 218 162 163 70 138 214 187 185 176 117 190 262 161 149 160 133 99 129 199 219 185 142 110 263 234 98 102 115 129 133 111 98 49 79 332 321 65 118 273 278 309 345 275 290 289 266 260 243 231 234 228 213 205 206
331 332 335 334 335 338 334 315 310 298 304 316 320 325 329 335 8 92 75 113 257 320 137 198 200 225 6 88 177 235 288 355 140 281 350 132 176 73 143 212 154 159 199 124 183 247 149 187 179 138 126 189 208 203 170 139 111 200 123 88 76 71 83 82 91 104 49 50 260 277 17 119 277 287 322 9 267 264 271 268 265 248 235 233 231 219 205 201
329 329 332 332 331 332 327 311 301 304 316 316 318 321 327 351 62 78 81 233 253 286 253 91 215 249 100 124 276 294 243 270 286 347 24 112 338 31 125 158 99 122 235 36 173 247 323 204 153 132 160 181 131 86 136 125 123 138 92 69 60 37 45 55 54 87 64 357 265 262 262 117 303 286 259 211 234 229 244 280 287 276 256 238 232 220 201 196
327 326 328 329 326 324 317 307 311 318 313 313 318 322 340 41 65 97 187 240 257 292 337 319 298 30 116 162 250 264 198 274 326 81 122 146 33 37 92 127 58 61 14 355 308 298 348 52 162 210 166 127 95 66 27 59 96 101 71 70 69 10 13 28 0 36 72 289 264 269 288 105 147 273 256 247 257 234 215 244 267 271 261 244 233 218 200 191
327 324 324 324 321 312 295 294 307 308 307 313 326 349 77 81 39 172 237 287 287 260 20 224 292 24 116 157 247 235 178 243 282 130 158 158 132 158 177 189 157 47 340 264 268 319 329 200 262 297 141 127 105 73 23 14 43 75 87 82 72 15 11 24 327 352 153 248 257 270 300 107 222 250 259 270 268 247 225 225 239 248 246 245 238 217 195 177
328 324 321 321 317 306 300 304 304 300 307 326 353 40 83 107 233 218 244 307 252 246 230 180 302 342 132 93 265 234 165 226 243 142 160 135 153 220 251 206 159 120 228 213 144 348 295 303 333 71 151 164 132 124 119 276 111 122 133 115 102 90 57 343 277 311 292 259 270 271 252 297 292 268 232 240 254 246 232 228 233 233 232 248 251 210 181 175
329 326 321 317 313 309 314 315 295 278 307 26 69 65 91 157 236 228 236 262 255 298 317 249 325 351 125 188 241 202 169 241 193 139 155 97 122 231 262 239 168 113 118 144 144 164 165 299 262 167 197 184 159 159 156 144 131 156 153 123 131 148 134 225 235 191 249 265 283 295 267 167 263 260 212 222 262 276 261 248 244 243 242 249 244 181 172 183
329 326 322 318 318 325 327 310 273 226 175 76 67 84 147 200 241 217 226 256 288 320 310 310 30 36 319 292 270 198 185 245 182 121 151 147 173 203 196 207 194 133 118 141 216 158 131 247 253 262 187 169 171 184 135 107 90 191 143 104 183 189 137 113 185 174 191 258 277 281 239 211 223 265 277 279 277 284 317 307 260 272 279 204 177 194 185 188
333 334 331 324 332 334 324 300 237 186 158 85 69 147 201 221 217 173 200 261 324 329 331 345 50 97 309 309 300 268 180 226 203 120 221 210 201 204 203 213 187 162 149 149 195 156 118 263 274 355 205 183 166 153 137 119 132 151 130 180 230 165 119 111 161 13 63 77 279 279 270 295 325 309 313 346 320 275 347 354 294 295 310 176 197 213 200 195
338 340 328 318 341 341 320 282 195 179 128 90 122 209 227 230 191 180 215 302 313 12 48 9 325 187 288 307 299 283 174 216 251 152 238 264 235 203 207 239 193 180 180 157 196 201 150 262 280 168 186 256 135 108 76 64 128 124 193 208 189 109 100 105 108 8 36 90 284 327 289 300 2 28 319 354 307 269 292 307 298 307 307 225 230 224 210 205
333 332 306 314 358 354 328 180 172 169 81 93 188 232 219 217 208 202 230 29 304 32 79 171 257 247 142 199 286 277 176 201 231 176 195 246 261 206 176 209 202 192 193 162 150 228 129 225 287 258 153 254 49 86 51 347 108 120 178 172 112 118 159 81 104 98 57 242 294 318 312 280 196 221 291 276 221 242 258 262 262 252 232 236 240 229 220 206
335 334 287 352 10 1 14 154 159 82 69 134 217 249 211 231 264 243 238 210 142 101 129 227 242 350 315 197 242 271 207 197 198 184 177 186 248 229 175 206 216 197 191 160 151 196 98 135 267 307 132 141 61 81 189 248 23 59 109 129 90 124 159 145 140 161 141 144 270 311 334 289 227 216 215 224 223 220 227 234 230 227 223 227 228 216 209 203
355 348 249 5 9 5 129 157 16 64 89 184 203 232 228 235 271 266 259 241 201 186 203 218 187 334 278 243 240 262 228 185 175 182 204 190 227 250 216 204 194 173 159 123 127 130 70 122 213 300 328 125 135 209 190 179 168 104 114 174 201 72 125 143 103 108 124 137 177 287 328 272 252 207 189 219 228 209 208 219 227 228 224 225 226 213 200 201
349 355 232 344 4 4 101 102 3 109 159 235 196 230 256 253 291 290 281 228 208 236 204 187 193 210 238 264 270 253 223 190 178 182 225 202 201 245 225 191 167 146 123 105 130 159 123 137 176 244 291 182 222 241 188 176 178 160 165 194 181 133 122 115 344 288 107 118 163 155 274 271 258 204 201 221 224 213 209 210 228 237 228 234 236 218 204 203
25 335 273 322 350 355 41 106 299 125 177 236 231 229 245 311 276 279 298 281 209 248 233 193 217 213 209 230 241 227 211 244 200 183 223 211 197 223 232 175 154 149 141 142 179 179 139 110 121 171 218 213 235 258 182 175 152 124 146 169 146 134 123 126 192 233 123 97 153 128 117 273 263 223 222 239 255 245 218 208 230 241 228 238 245 225 213 216
81 288 291 317 341 353 39 127 292 327 218 250 269 247 241 315 270 268 302 316 252 248 276 250 218 211 223 221 214 209 202 209 199 194 218 228 219 230 223 148 143 147 138 137 170 168 105 90 105 240 295 305 318 349 13 61 91 98 91 135 139 160 135 141 174 178 131 153 168 99 312 272 277 288 257 243 250 258 232 214 225 246 246 239 237 224 215 220
311 275 287 319 336 355 95 186 250 251 255 288 312 299 308 277 221 240 254 253 244 208 248 254 224 220 245 208 177 219 205 193 237 228 209 212 235 247 213 162 156 156 166 178 170 163 155 119 113 93 7 345 345 353 352 354 72 133 203 203 152 123 98 115 136 87 98 190 154 123 233 257 273 320 341 349 81 52 328 276 225 242 259 244 238 234 215 208
311 270 266 313 334 12 144 179 148 222 265 315 296 285 302 272 243 226 219 242 247 208 209 258 247 248 269 234 227 259 227 189 226 253 236 227 252 299 254 188 183 190 208 169 138 130 141 155 123 120 149 184 206 227 247 239 198 125 149 190 178 123 124 148 120 82 148 205 140 144 210 263 290 327 1 4 72 112 312 295 217 223 241 234 244 248 215 195
351 318 297 318 341 19 52 70 51 3 317 339 301 271 203 238 280 242 205 233 256 223 218 257 270 292 293 283 262 268 256 213 227 264 276 246 262 301 280 180 175 187 140 110 105 106 107 110 119 140 168 185 190 212 223 159 134 161 142 138 167 145 128 121 110 138 181 161 173 214 200 266 297 290 304 302 256 195 220 218 178 198 231 135 12 315 194 194
70 283 327 347 335 351 8 24 29 1 330 321 297 277 206 227 294 290 215 217 289 279 250 264 36 40 330 319 315 276 272 295 301 274 245 245 260 283 305 90 110 138 120 99 85 95 99 101 151 140 172 201 190 212 267 113 142 172 162 151 169 155 126 123 152 197 159 131 237 249 185 184 267 260 244 243 232 228 237 223 201 196 206 72 73 69 72 80
14 256 323 355 320 336 358 345 347 336 315 305 281 282 295 283 292 302 291 316 345 6 12 357 15 9 326 301 280 270 298 342 309 278 253 246 260 314 355 38 61 57 92 74 30 98 109 133 184 134 118 224 194 247 329 31 149 166 165 174 163 152 163 172 194 199 154 147 231 230 167 191 243 248 234 224 211 211 221 215 181 124 105 94 98 86 56 6
320 281 313 340 316 320 322 312 316 319 315 316 305 285 291 278 274 290 311 329 344 8 42 21 330 331 323 300 235 216 6 4 318 294 285 266 260 77 59 69 33 35 71 75 19 92 111 120 190 124 75 12 339 343 51 76 35 119 154 210 165 165 186 188 196 193 155 152 218 176 172 220 238 228 231 229 207 190 162 143 112 109 136 155 131 127 305 304
342 324 323 331 307 297 292 289 313 331 329 321 293 282 301 319 351 337 321 307 297 335 39 30 321 320 322 317 115 88 24 356 298 282 298 320 312 225 161 188 170 70 54 84 29 37 94 132 205 92 72 351 331 354 46 71 112 151 356 354 99 126 154 141 135 171 153 140 127 120 159 250 255 218 215 196 146 124 116 134 130 133 167 155 137 252 287 289
340 329 324 319 300 300 297 310 354 351 329 313 291 317 350 23 19 351 298 290 304 57 44 6 324 320 324 353 34 15 344 327 294 277 271 278 280 258 252 226 165 136 64 109 96 36 84 119 100 74 82 276 316 12 8 40 76 64 332 321 123 119 138 177 174 183 180 162 109 93 142 253 265 217 145 83 113 123 140 172 159 158 176 150 157 239 272 274
343 332 328 317 297 329 340 328 340 332 294 293 324 340 351 355 354 353 319 322 33 81 48 359 336 333 330 353 8 344 323 310 291 281 270 255 259 261 268 252 158 140 140 129 81 41 113 130 143 106 126 245 301 6 349 40 60 350 281 215 175 154 144 148 172 217 194 152 128 146 201 241 264 184 143 117 138 149 170 190 179 182 187 164 181 229 265 277